Orlando, FL

5:32 PM EST on February 23, 2017 (GMT -0500)
Executive

Weather History for KORL - December, 2012

Change the Weather History Date:

Saturday, December 29, 2012

  Actual Average Record
Temperature  
Mean Temperature 64 °F -  
Max Temperature 75 °F 67 °F 84 °F (2015)
Min Temperature 52 °F 49 °F 32 °F (2010)
Degree Days  
Heating Degree Days 1    
Growing Degree Days 14 (Base 50)    
Moisture  
Dew Point 63 °F    
Average Humidity 80    
Maximum Humidity 96    
Minimum Humidity 55    
Precipitation  
Precipitation 0.13 in - - ()
Sea Level Pressure  
Sea Level Pressure 29.96 in    
Wind  
Wind Speed 13 mph (WSW)    
Max Wind Speed 20 mph    
Max Gust Speed 26 mph    
Visibility 9 miles    
Events Rain    
Averages and records for this station are not official NWS values.
T = Trace of Precipitation, MM = Missing Value Source: NWS Daily Summary

Daily Weather History Graph

Daily Weather History Graph

Search for Another Location

Airport or City:

Trip Planner

Search our weather history database for the weather conditions in past years. The results will help you decide how hot, cold, wet, or windy it might be!

Date:

Astronomy

Dec. 29, 2012 Rise Set
Actual Time 7:17 AM EST 5:38 PM EST
Civil Twilight 6:51 AM EST 6:04 PM EST
Nautical Twilight 6:21 AM EST 6:33 PM EST
Astronomical Twilight 5:53 AM EST 7:02 PM EST
Moon 7:01 PM EST (12/29) 7:56 AM EST (12/29)
Length of Visible Light 11h 12m
Length of Day
10h 20m
Full, 98% of the Moon is Illuminated
Dec 29
Full
Jan 4
Last Quarter
Jan 11
New
Jan 18
First Quarter
Jan 26
Full

Hourly Weather History & Observations

Time (EST) Temp. Dew Point Humidity Pressure Visibility Wind Dir Wind Speed Gust Speed Precip Events Conditions
12:53 AM 66.9 °F 64.9 °F 93% 29.93 in 7.0 mi South 11.5 mph - 0.00 in   Overcast
1:53 AM 68.0 °F 66.9 °F 96% 29.91 in 7.0 mi South 11.5 mph - 0.01 in   Overcast
2:53 AM 69.1 °F 66.9 °F 93% 29.91 in 8.0 mi South 12.7 mph - 0.01 in   Overcast
3:53 AM 69.1 °F 66.9 °F 93% 29.89 in 9.0 mi South 9.2 mph - N/A   Overcast
4:53 AM 70.0 °F 66.9 °F 90% 29.89 in 10.0 mi South 11.5 mph 20.7 mph N/A   Overcast
5:53 AM 69.1 °F 66.9 °F 93% 29.93 in 10.0 mi SSW 9.2 mph - N/A   Overcast
6:13 AM 69.8 °F 66.2 °F 88% 29.92 in 10.0 mi SSW 11.5 mph - N/A   Overcast
6:53 AM 71.1 °F 68.0 °F 90% 29.94 in 10.0 mi SSW 12.7 mph - 0.00 in   Overcast
7:34 AM 71.6 °F 68.0 °F 88% 29.93 in 9.0 mi SSW 13.8 mph - N/A   Overcast
7:41 AM 71.6 °F 68.0 °F 88% 29.93 in 9.0 mi SSW 13.8 mph - N/A   Overcast
7:53 AM 72.0 °F 69.1 °F 91% 29.95 in 8.0 mi SSW 13.8 mph - N/A   Overcast
8:53 AM 73.0 °F 69.1 °F 87% 29.96 in 7.0 mi SSW 16.1 mph 21.9 mph N/A   Overcast
9:53 AM 73.9 °F 70.0 °F 87% 29.97 in 10.0 mi SW 15.0 mph - 0.03 in   Overcast
9:55 AM 73.4 °F 69.8 °F 88% 29.96 in 10.0 mi SW 11.5 mph - N/A   Overcast
10:26 AM 73.4 °F 69.8 °F 88% 29.95 in 7.0 mi SSW 16.1 mph 20.7 mph 0.00 in Rain Light Rain
10:32 AM 73.4 °F 69.8 °F 88% 29.95 in 8.0 mi SW 17.3 mph 21.9 mph 0.01 in Rain Light Rain
10:53 AM 75.0 °F 70.0 °F 84% 29.95 in 10.0 mi SW 19.6 mph 26.5 mph 0.01 in   Overcast
11:00 AM 73.4 °F 69.8 °F 88% 29.94 in 6.0 mi WSW 15.0 mph 23.0 mph 0.01 in Rain Light Rain
11:10 AM 73.4 °F 69.8 °F 88% 29.94 in 3.0 mi WSW 11.5 mph 21.9 mph 0.04 in Rain Light Rain
11:30 AM 73.4 °F 69.8 °F 88% 29.94 in 10.0 mi West 12.7 mph 20.7 mph 0.07 in   Overcast
11:53 AM 73.9 °F 69.1 °F 85% 29.95 in 10.0 mi West 12.7 mph - 0.07 in   Overcast
12:17 PM 73.4 °F 69.8 °F 88% 29.93 in 10.0 mi West 12.7 mph - N/A   Overcast
12:51 PM 73.4 °F 66.2 °F 78% 29.93 in 10.0 mi West 16.1 mph - N/A   Mostly Cloudy
12:53 PM 73.0 °F 66.9 °F 81% 29.93 in 10.0 mi West 12.7 mph - N/A   Mostly Cloudy
1:00 PM 73.4 °F 66.2 °F 78% 29.91 in 10.0 mi West 11.5 mph - N/A   Mostly Cloudy
1:16 PM 73.4 °F 64.4 °F 73% 29.92 in 10.0 mi West 15.0 mph 26.5 mph N/A   Mostly Cloudy
1:27 PM 75.2 °F 62.6 °F 65% 29.91 in 10.0 mi West 17.3 mph 24.2 mph N/A   Mostly Cloudy
1:34 PM 75.2 °F 62.6 °F 65% 29.91 in 10.0 mi West 18.4 mph - N/A   Scattered Clouds
1:53 PM 75.9 °F 62.1 °F 62% 29.92 in 10.0 mi West 13.8 mph 24.2 mph N/A   Clear
2:53 PM 75.0 °F 59.0 °F 57% 29.93 in 10.0 mi West 19.6 mph 25.3 mph N/A   Clear
3:53 PM 72.0 °F 57.0 °F 59% 29.94 in 10.0 mi WNW 19.6 mph 25.3 mph N/A   Clear
4:53 PM 68.0 °F 51.1 °F 55% 29.96 in 10.0 mi West 17.3 mph 25.3 mph N/A   Clear
6:53 PM 61.0 °F 48.9 °F 64% 30.02 in 10.0 mi West 12.7 mph - N/A   Clear
7:53 PM 57.9 °F 46.0 °F 65% 30.06 in 10.0 mi West 18.4 mph 25.3 mph N/A   Clear
8:53 PM 55.0 °F 46.9 °F 74% 30.10 in 10.0 mi WNW 13.8 mph 23.0 mph N/A   Clear
9:53 PM 54.0 °F 46.0 °F 75% 30.12 in 10.0 mi West 11.5 mph - N/A   Clear
10:53 PM 53.1 °F 45.0 °F 74% 30.15 in 10.0 mi WNW 10.4 mph - N/A   Clear
11:53 PM 52.0 °F 43.0 °F 71% 30.17 in 10.0 mi WNW 11.5 mph - N/A   Clear